STARLINK-5689, 55474

Orbit data source: Space-Track

STARLINK-5689, 55474 is a payload satellite owned by SpaceX/Seattle (US) in LEO that was launched on Thu, 02 Feb 2023 UTC via an FALCON 9 launch vehicle from the Air Force Eastern Test Range (AFETR). Payload-class satellites include a variety of spacecraft equipped with specific instruments for various scientific and technological missions. These include communications satellites like Starlink; space stations such as the ISS; scientific satellites like the Hubble; Earth observation satellites from companies like Planet Labs, Umbra, and HawkEye 360; GPS; miniature CubeSats for education and research; and military/defense satellites.

Loading next visibility...
Identifier
55474, 2023-015AB
Orbit
LEO
Country
Flag of USUS
Related business
Manufacturer
SpaceX/Seattle
Mission
Operational spacecraft
Bus & Motor
STARLINK, Unknown motor
Mass
305 kg wet, ~290 kg dry
Launch date (UTC)
2023-02-02 (3 years ago)
Launch vehicle
FALCON 9
Launch site
Air Force Eastern Test Range (AFETR)
Object type
Payload
Rocket body
Debris
Shape & HBR
Unknown shape, 10.1 m
Radar Cross Section
Large (>1 m²)

Expand to show TLE details & history
Last TLE update: 21 hours ago

TLE from 21 hours ago
0 STARLINK-5689
1 55474U 23015AB  25302.80914319  .00000060  00000-0  19546-4 0  9998
2 55474  43.0056 330.3673 0001287 265.9407  94.1288 15.02537862150918
Epoch: 2025-10-29T19:25Z
TLE epoch observation values (Epoch: 2025-10-29T19:25:09.971Z)
Latitude
-0.00004°
Longitude
0.69875°
Altitude
558.917 km
Speed
7.584 km/s
True Right ascension
22h 01m 28s
True Declination
0° 00' 00"
Sunlit
Object was in full shadow at epoch
Visualization orbit readout
Latitude
Unknown
Longitude
Unknown
Altitude
Unknown
Speed
Unknown
Apparent Right ascension
Unknown
Apparent Declination
Unknown
Sunlit
N/A
Visualization observer readout
Local Sidereal Time
12:02:41
Azimuth
Unknown
Elevation
Unknown
Doppler factor
Unknown
Orbital elements
Apogee altitude
561.89 km
Perigee altitude
560.104 km
Semi-major axis
6,939.134 km
Eccentricity
0.00013
Inclination
43.0056°
RAAN
330.3673°
Arg. of periapsis
265.9407°
True anomaly
94.14351°
Mean anomaly
94.1288°
Eccentric anomaly
94.13615°
Mean motion
3.75479 °/min
Orbital period
95.88 mins
BSTAR
0.000019546
Loading maneuver chart data...
Computing Atmospheric mass density...
Loading historical data...
Loading historical data...
Loading historical data...
Loading historical data...
Loading historical data...
Loading historical data...
Loading historical data...

Documentation

Showing up to 5 results
|